Weather History for Moses Lake, WA

Change the Weather History Date:

Tuesday, November 20, 2012

  Actual Average Record
Temperature  
Mean Temperature 48 °F 36 °F  
Max Temperature 54 °F 44 °F 55 °F (1986)
Min Temperature 41 °F 28 °F -3 °F (1985)
Degree Days  
Heating Degree Days 17 29  
Month to date heating degree days 448 510  
Since 1 July heating degree days 973 1147  
Cooling Degree Days 0 0  
Month to date cooling degree days 0 0  
Year to date cooling degree days 719 615  
Moisture  
Dew Point 42 °F    
Average Humidity 77    
Maximum Humidity 93    
Minimum Humidity 61    
Precipitation  
Precipitation 0.01 in 0.04 in 0.35 in (2003)
Month to date precipitation 0.87 0.77  
Year to date precipitation 7.47 7.24  
Sea Level Pressure  
Sea Level Pressure 29.72 in    
Wind  
Wind Speed 12 mph (South)    
Max Wind Speed 24 mph    
Max Gust Speed 31 mph    
Visibility 10 miles    
Events      
T = Trace of Precipitation, MM = Missing Value Source: NWS Daily Summary

Daily Weather History Graph

Daily Weather History Graph

Search for Another Location

Airport:

Trip Planner

Search our weather history database for the weather conditions in past years. The results will help you decide how hot, cold, wet, or windy it might be!

Date:

Astronomy

Nov. 20, 2012 Rise Set
Actual Time 7:09 AM PST 4:16 PM PST
Civil Twilight 6:35 AM PST 4:50 PM PST
Nautical Twilight 5:57 AM PST 5:27 PM PST
Astronomical Twilight 5:21 AM PST 6:04 PM PST
Moon 12:31 PM PST (11/20) No Moon Set
Length of Visible Light 10h 14m
Length of Day
9h 07m
First Quarter, 52% of the Moon is Illuminated
Nov 20
First Quarter
Nov 28
Full
Dec 6
Last Quarter
Dec 13
New
Dec 19
First Quarter

Hourly Weather History & Observations

Time (PST) Temp. Windchill Dew Point Humidity Pressure Visibility Wind Dir Wind Speed Gust Speed Precip Events Conditions
12:52 AM 51.1 °F - 41.0 °F 68% 29.73 in 10.0 mi SSW 9.2 mph - N/A   Overcast
1:52 AM 48.9 °F - 42.1 °F 77% 29.75 in 10.0 mi South 13.8 mph - N/A   Scattered Clouds
2:52 AM 48.9 °F - 42.1 °F 77% 29.75 in 10.0 mi South 11.5 mph - N/A   Mostly Cloudy
3:52 AM 48.0 °F - 42.1 °F 80% 29.76 in 10.0 mi South 9.2 mph - N/A   Overcast
4:52 AM 48.0 °F - 43.0 °F 83% 29.75 in 10.0 mi SSE 12.7 mph - N/A   Mostly Cloudy
5:52 AM 46.9 °F - 44.1 °F 90% 29.72 in 10.0 mi SSE 9.2 mph - N/A   Clear
5:55 AM 50.0 °F - 44.6 °F 82% 30.14 in 20.0 mi South 5.8 mph - N/A   Clear
6:52 AM 48.0 °F - 44.1 °F 86% 29.72 in 10.0 mi SSE 11.5 mph - N/A   Overcast
7:52 AM 48.2 °F - 44.6 °F 87% 29.70 in 10.0 mi SSE 12.7 mph - N/A   Overcast
8:52 AM 48.9 °F - 45.0 °F 86% 29.70 in 10.0 mi SSE 9.2 mph - N/A   Overcast
9:52 AM 48.9 °F - 45.0 °F 86% 29.69 in 10.0 mi SSE 17.3 mph - N/A   Partly Cloudy
10:52 AM 50.0 °F - 45.0 °F 83% 29.68 in 10.0 mi SSE 17.3 mph - N/A   Clear
11:29 AM 50.0 °F - 44.6 °F 82% 29.66 in 10.0 mi SSE 16.1 mph - N/A   Mostly Cloudy
11:52 AM 50.0 °F - 45.0 °F 83% 29.66 in 10.0 mi South 17.3 mph 24.2 mph N/A   Overcast
12:52 PM 51.1 °F - 46.0 °F 83% 29.65 in 10.0 mi South 16.1 mph 27.6 mph 0.01 in   Mostly Cloudy
1:52 PM 53.1 °F - 46.0 °F 77% 29.65 in 10.0 mi South 20.7 mph 26.5 mph N/A   Mostly Cloudy
1:59 PM 53.6 °F - 46.4 °F 77% 29.64 in 10.0 mi South 19.6 mph 26.5 mph N/A   Scattered Clouds
2:52 PM 53.1 °F - 46.0 °F 77% 29.65 in 10.0 mi South 17.3 mph 26.5 mph N/A   Clear
3:52 PM 53.1 °F - 45.0 °F 74% 29.65 in 10.0 mi South 18.4 mph 25.3 mph N/A   Clear
4:52 PM 52.0 °F - 41.0 °F 66% 29.67 in 10.0 mi South 15.0 mph 21.9 mph N/A   Clear
5:52 PM 50.0 °F - 39.9 °F 68% 29.69 in 10.0 mi South 11.5 mph - N/A   Clear
6:52 PM 48.0 °F - 36.0 °F 63% 29.72 in 10.0 mi SSW 9.2 mph - N/A   Clear
7:52 PM 46.0 °F 41.9 °F 36.0 °F 68% 29.69 in 10.0 mi South 8.1 mph - N/A   Clear
8:52 PM 42.1 °F 39.2 °F 35.1 °F 76% 29.85 in 10.0 mi SE 4.6 mph - N/A   Partly Cloudy
9:52 PM 45.0 °F 43.5 °F 36.0 °F 71% 29.85 in 10.0 mi SSW 3.5 mph - N/A   Overcast
10:52 PM 45.0 °F 40.6 °F 35.1 °F 68% 29.70 in 10.0 mi South 8.1 mph - N/A   Mostly Cloudy
11:52 PM 46.0 °F 41.9 °F 34.0 °F 63% 29.70 in 10.0 mi SSW 8.1 mph - N/A   Overcast